Wind_Speed
29 29 30 31 31 30 29 34 38 38 36 35 41 45 48 49 50 48 38 34 37 28 40 28 29 28 36 42 44 38 33 45 40 36 32 28 24 25 21 20 19 23 23 20 24 28 29 33 44 46 44 44 43 43
31 33 32 29 29 32 36 37 38 40 34 34 31 26 29 31 30 36 29 28 34 44 24 35 15 31 32 34 35 37 39 46 29 33 31 30 28 24 18 17 21 21 20 24 29 29 27 28 34 33 38 41 36 33
19 20 23 26 29 31 32 35 31 28 22 18 18 15 13 21 26 32 30 38 39 38 19 22 16 26 29 27 41 36 37 32 34 33 29 27 27 25 23 21 21 19 25 26 32 30 35 35 35 32 31 29 30 27
14 17 21 25 30 33 34 31 28 16 15 14 8 11 15 15 10 32 38 34 32 13 7 23 34 29 40 14 32 32 26 25 23 21 25 30 29 28 29 26 31 26 27 29 32 31 33 32 35 36 36 38 35 37
8 12 16 22 25 23 22 19 20 21 18 6 16 19 16 17 19 25 27 22 23 28 30 34 30 32 37 26 28 30 24 20 24 27 29 30 31 31 29 32 37 39 42 37 37 36 25 27 26 26 27 29 29 28
9 13 18 16 10 15 20 22 25 23 11 22 26 25 26 18 23 34 28 31 31 30 28 28 29 29 30 29 25 33 32 33 32 30 29 25 26 32 37 43 42 45 41 40 35 31 25 27 28 26 28 28 22 16
11 11 14 6 17 23 21 23 21 19 22 20 22 21 24 24 25 25 31 34 31 31 29 29 28 33 34 30 31 38 39 32 30 30 31 34 39 45 48 48 47 39 37 34 32 28 27 26 27 29 29 30 30 25
11 7 2 20 22 21 21 25 18 23 26 21 22 23 21 19 16 22 28 26 29 22 21 14 18 22 25 29 33 34 29 26 28 31 37 44 38 41 45 40 36 32 31 28 26 28 27 26 29 27 23 24 24 27
5 2 18 19 21 29 26 24 20 20 20 19 15 16 18 17 15 13 12 8 5 3 6 8 12 13 19 23 25 27 32 38 37 35 30 26 23 30 20 18 20 23 25 26 25 27 28 25 20 22 22 21 24 27
2 8 27 23 20 17 18 18 20 21 21 17 14 11 10 9 9 6 4 7 11 14 16 15 19 24 28 30 33 34 36 33 26 16 19 24 19 18 12 15 18 19 20 19 28 21 21 22 21 23 23 22 22 23
10 15 22 20 17 10 7 10 12 16 11 8 10 8 8 6 6 10 11 13 12 5 7 7 12 18 18 14 12 14 14 14 12 11 18 14 11 14 15 16 14 12 14 16 16 18 20 21 20 18 19 21 24 23
24 22 19 17 18 13 10 10 9 10 11 10 12 10 10 10 13 19 13 8 17 16 10 9 11 12 13 16 12 13 11 9 8 10 8 5 6 10 10 11 13 14 14 13 16 18 19 18 16 17 16 17 17 17
27 23 21 19 18 16 15 15 15 17 16 12 13 15 16 14 13 14 22 13 8 6 8 9 10 12 14 17 18 13 9 9 12 8 9 6 3 6 9 10 12 15 16 17 19 18 15 16 14 13 17 20 21 21
33 30 31 31 30 29 31 33 33 30 22 15 17 12 8 11 15 14 14 5 9 12 14 12 10 11 14 12 12 14 10 12 11 10 10 8 9 8 10 11 14 16 18 17 14 11 8 8 8 11 12 12 11 12
22 23 23 23 24 23 22 20 20 17 17 11 10 11 14 12 10 13 15 15 16 14 13 11 9 10 10 10 14 13 13 13 13 9 10 13 14 14 15 16 17 17 11 8 7 7 7 7 8 6 5 7 7 9
11 13 13 14 14 16 17 19 17 12 10 9 12 12 12 10 9 9 10 12 14 13 10 11 10 11 13 14 16 15 13 12 14 16 16 17 20 18 17 14 12 10 9 10 9 9 8 7 7 7 8 9 10 12
5 7 7 7 8 8 8 12 11 8 9 5 8 8 7 5 5 4 4 5 6 7 9 7 7 9 11 14 15 16 16 17 17 18 18 15 13 11 9 8 9 11 10 9 10 9 8 9 9 10 10 11 13 15
11 9 7 6 5 7 9 9 13 12 9 9 10 9 7 5 3 3 3 5 7 9 7 7 7 9 11 13 15 15 14 14 14 12 10 8 7 8 10 11 10 8 8 9 11 10 11 11 11 12 12 13 14 15
14 16 17 14 12 12 13 12 14 15 13 10 8 7 6 7 6 6 7 7 9 11 11 10 9 9 10 11 11 12 11 11 11 9 9 9 9 9 10 10 10 9 6 7 10 11 12 12 13 14 15 15 15 16
10 12 16 18 17 17 17 15 15 18 18 18 14 12 10 10 10 9 9 11 12 15 15 12 11 12 11 11 10 10 11 11 11 10 10 10 10 10 11 12 11 10 9 9 10 10 10 12 14 15 15 16 16 17
7 9 14 16 18 21 22 20 19 19 20 21 20 18 16 15 14 13 13 13 14 15 13 15 15 12 11 10 10 11 12 13 11 10 11 12 12 11 12 14 14 13 13 11 11 11 14 15 13 11 11 13 14 15
4 7 8 11 14 14 15 17 19 20 23 22 21 19 19 19 18 18 17 14 11 11 13 13 12 11 11 10 10 11 12 12 11 11 11 10 10 11 13 14 14 13 13 13 13 15 15 13 12 12 12 13 14 15
10 7 8 11 13 13 13 17 17 18 22 25 25 23 20 19 18 18 16 14 12 14 13 12 12 12 12 11 11 11 13 13 12 11 10 10 10 11 12 12 13 13 13 14 15 14 14 15 15 16 17 17 18 20
17 15 13 10 11 12 13 15 17 19 20 20 24 24 24 21 20 19 16 15 15 16 16 16 15 15 15 13 13 13 15 15 13 11 11 9 9 9 10 12 13 14 15 15 15 15 16 16 17 18 20 21 22 24
18 20 20 18 16 14 14 15 16 17 18 21 22 22 22 20 20 17 16 16 17 20 16 16 17 17 17 16 16 15 16 17 16 15 13 12 11 10 11 11 11 12 13 14 14 16 17 19 20 21 23 25 26 28
20 19 19 20 22 21 20 18 18 19 19 20 21 21 21 22 21 18 15 16 19 19 18 18 17 17 17 17 17 18 18 18 19 19 18 17 17 17 16 17 16 17 18 18 19 20 20 22 23 24 26 27 28 29
20 20 19 18 20 22 26 27 25 23 22 22 23 22 23 23 23 20 21 22 21 20 20 20 20 19 18 17 18 18 19 19 20 20 21 22 22 22 21 21 21 22 21 21 21 21 23 23 24 25 26 26 27 28
22 21 20 20 20 20 20 23 27 29 28 27 25 24 27 26 23 23 24 24 24 24 23 22 22 22 20 20 20 20 21 20 21 21 22 22 22 22 22 23 23 23 22 21 22 22 22 22 23 24 24 24 24 24
18 21 23 23 23 23 23 22 22 24 26 29 29 29 28 27 27 27 26 27 27 27 26 26 25 25 25 24 24 24 23 23 23 23 23 23 23 23 23 23 23 22 22 22 22 21 21 22 23 23 22 21 20 19
16 20 22 24 26 25 24 24 25 24 24 24 25 27 29 30 29 28 28 28 29 29 29 29 29 29 28 27 27 27 27 26 26 25 24 23 24 24 23 23 23 23 23 22 21 21 22 22 22 22 20 18 16 14
17 17 18 20 21 24 26 28 28 26 26 27 27 25 26 28 29 28 30 31 30 30 30 29 29 30 29 29 29 29 28 27 27 26 26 25 25 24 25 24 24 23 22 21 21 21 22 23 22 21 19 17 16 16
21 20 18 17 19 20 24 24 24 26 29 28 28 28 28 27 26 24 28 31 32 32 32 31 30 30 30 29 29 29 29 28 28 27 26 26 25 26 25 25 25 24 23 22 22 23 23 23 22 21 20 20 20 20
23 23 24 22 21 20 20 20 21 23 26 27 27 28 28 28 26 27 29 29 29 29 30 31 31 31 30 29 28 28 28 28 27 27 27 27 27 27 27 26 25 24 24 24 24 25 24 24 24 23 22 23 24 24
Wind_Direction
243 247 251 255 255 252 249 258 262 267 272 266 262 260 258 256 255 253 248 241 239 235 177 180 198 201 209 206 206 208 224 226 234 247 240 238 233 235 242 244 243 242 254 260 257 267 261 251 252 257 262 262 262 259
249 249 251 249 247 245 246 250 257 270 274 276 266 250 244 241 238 240 235 222 200 172 161 179 194 189 212 209 203 205 222 232 240 225 225 229 232 239 239 242 268 265 274 284 274 266 266 265 259 261 260 262 262 263
241 245 248 250 253 252 251 254 263 283 270 251 254 261 242 221 228 232 200 192 179 165 147 168 199 188 196 209 214 210 219 222 214 209 217 225 228 233 236 244 252 269 289 294 271 258 258 256 252 254 259 259 257 255
246 253 258 260 259 257 257 263 270 233 181 119 106 139 139 151 132 165 163 162 168 172 190 210 189 181 170 156 187 188 206 212 217 222 229 234 243 251 257 261 262 282 291 283 269 264 258 258 255 252 257 262 261 261
247 258 271 279 270 253 240 219 191 179 160 124 123 113 143 143 146 143 152 165 174 197 216 201 186 183 190 206 205 209 227 219 229 236 242 248 256 263 256 258 263 285 290 279 275 271 265 261 249 260 257 266 267 261
293 279 293 300 216 187 166 165 166 167 158 142 148 137 130 115 147 149 169 175 160 188 198 191 198 203 206 204 206 214 222 237 234 245 243 250 260 255 263 274 284 292 274 257 254 259 264 265 267 268 268 259 265 260
303 290 311 175 144 150 148 149 150 157 150 152 157 157 151 145 147 156 164 176 188 187 198 207 205 202 202 218 224 225 226 227 235 243 260 275 278 271 275 277 285 276 260 254 242 254 260 269 262 265 264 259 258 261
302 275 147 152 140 137 147 165 155 155 157 166 145 166 173 159 154 170 169 164 168 161 168 174 193 199 203 206 215 219 233 249 259 266 274 279 268 265 260 260 260 250 248 260 265 256 266 265 267 266 269 269 255 257
263 162 172 152 135 122 147 164 158 162 171 170 178 190 149 131 117 122 122 117 123 177 231 238 238 253 248 248 253 259 261 268 272 276 275 258 254 258 265 250 237 244 258 258 247 256 255 252 259 265 266 267 269 270
153 136 172 167 140 130 109 112 134 143 156 148 137 130 149 160 165 167 217 250 271 269 291 280 267 259 254 265 257 255 256 252 255 254 256 257 252 237 229 234 235 242 247 253 253 244 242 255 265 271 276 278 275 276
112 124 156 173 179 176 159 149 147 152 156 170 170 145 197 219 255 284 287 310 276 212 131 145 174 184 193 192 223 230 215 219 230 239 247 238 205 216 221 223 223 241 231 236 248 259 265 273 279 278 278 280 280 273
104 114 134 167 195 201 223 236 229 215 213 216 236 260 258 273 256 270 262 180 131 105 140 155 174 181 193 213 196 167 145 150 175 198 198 197 228 226 210 213 223 236 246 260 277 279 281 283 271 271 273 279 282 275
96 104 115 122 137 138 137 136 146 141 128 143 135 133 126 126 127 141 148 148 135 60 167 194 190 187 190 174 160 155 185 207 237 261 192 218 225 198 215 226 245 257 268 281 286 279 268 263 265 272 276 279 278 276
86 79 87 95 97 102 106 110 112 110 96 63 54 59 74 123 143 154 150 151 140 145 163 150 161 169 189 183 191 186 227 230 220 219 206 218 222 258 251 251 260 276 286 286 267 253 257 268 275 286 293 300 304 303
83 88 92 93 101 108 101 97 87 83 63 78 108 115 129 135 117 126 129 139 139 135 151 159 164 173 202 208 223 219 221 234 233 227 245 257 265 272 275 276 278 277 261 250 247 245 242 266 291 295 311 319 324 336
93 98 100 106 112 115 118 113 93 86 102 121 121 119 125 131 133 123 126 147 135 134 166 180 193 205 217 226 220 226 239 246 247 253 260 268 275 271 266 262 252 244 247 254 240 233 248 274 284 280 298 303 314 323
155 128 117 132 145 140 151 149 135 130 126 146 144 136 130 129 154 164 166 173 177 176 190 206 220 234 234 232 230 235 240 243 252 262 270 262 253 243 234 231 245 256 245 236 227 233 267 274 270 273 288 301 310 316
203 204 208 203 197 198 204 197 197 185 170 170 171 172 170 146 159 209 225 209 211 231 235 254 274 277 255 243 239 243 246 250 253 255 235 220 226 234 242 249 239 227 239 231 230 250 272 270 268 274 284 295 304 312
242 236 235 240 226 216 233 229 216 216 221 212 207 214 230 236 232 225 234 236 241 251 263 275 283 271 250 240 236 236 235 237 232 224 231 237 255 258 244 221 216 227 243 243 246 255 269 270 273 278 283 289 296 305
245 240 232 227 224 226 235 235 228 220 222 223 232 241 244 244 245 244 253 260 261 258 262 268 253 249 244 239 242 248 238 229 223 237 242 252 265 255 230 219 224 235 246 257 257 257 270 279 281 282 283 287 294 300
256 255 242 238 239 243 241 235 231 225 225 231 241 246 244 246 251 248 255 258 265 262 254 247 242 238 242 242 247 248 240 224 237 242 257 263 257 246 231 227 233 243 247 260 261 263 279 282 283 292 297 299 302 305
283 254 256 246 245 243 234 231 230 231 228 229 234 242 246 246 245 248 250 251 263 250 236 237 233 232 240 249 252 247 231 232 240 256 261 254 248 243 235 233 239 249 249 254 259 274 278 279 286 292 296 299 302 304
293 291 254 249 251 250 243 240 238 237 235 231 236 240 237 240 249 250 244 242 248 251 241 234 238 241 247 251 253 241 229 234 244 256 256 250 249 243 238 235 237 241 248 257 269 273 274 280 287 291 293 294 295 296
267 267 268 272 261 255 249 249 248 244 244 242 243 244 245 250 252 250 243 237 241 248 245 240 244 246 248 250 249 242 235 237 244 248 249 249 249 250 248 246 246 252 258 264 269 273 279 285 289 293 295 297 297 296
270 263 258 256 261 264 260 256 253 250 247 247 245 245 247 249 249 245 239 235 240 244 245 241 245 247 246 250 251 247 241 240 242 244 245 245 247 248 250 253 254 258 264 268 272 279 284 288 292 294 295 297 298 298
269 270 269 263 257 257 255 256 257 256 252 250 249 248 249 246 245 244 240 246 244 243 243 244 245 246 248 250 251 248 244 243 243 244 245 247 249 251 254 257 261 263 267 270 275 279 284 289 292 295 298 300 300 299
265 270 271 267 264 260 256 254 255 253 254 255 253 251 251 252 250 251 251 250 249 246 245 244 244 247 249 248 248 247 244 245 246 247 248 250 252 255 258 262 265 267 269 271 273 278 284 288 292 295 297 299 300 303
261 263 262 266 269 270 270 264 259 258 256 255 255 254 252 254 256 251 249 249 248 247 248 247 246 246 246 247 247 248 249 250 251 251 251 252 254 257 259 260 262 265 267 268 275 281 284 290 294 297 299 302 305 307
266 262 263 265 268 268 268 269 267 261 258 258 258 258 256 256 255 254 254 254 253 252 251 251 250 248 248 248 248 249 250 251 252 253 254 255 256 256 258 260 260 260 263 270 275 279 285 291 295 298 299 302 305 310
284 274 270 266 264 264 266 266 264 263 263 262 262 261 259 257 256 257 257 255 255 254 252 252 252 250 250 250 249 250 251 251 253 254 255 255 255 256 255 254 255 259 265 268 272 279 287 291 294 295 296 298 298 302
293 288 284 277 270 267 265 264 264 265 265 263 263 262 261 259 258 257 257 256 255 255 255 254 252 252 251 250 249 249 251 252 252 253 254 254 254 253 252 253 255 259 262 267 274 282 287 291 294 293 290 287 288 291
293 292 288 285 282 274 270 269 268 265 262 263 263 263 263 262 261 259 261 259 254 253 253 253 253 253 253 252 251 251 251 251 251 251 251 251 251 252 251 252 255 258 262 268 276 281 286 290 290 289 283 280 282 284
289 287 288 286 284 281 278 279 275 268 266 265 263 263 263 263 263 259 259 260 261 260 255 254 253 252 252 252 252 251 251 250 249 248 249 250 250 250 251 253 255 259 264 270 276 281 285 287 287 285 282 280 280 282
Height
5364 5366 5368 5370 5372 5373 5376 5379 5381 5383 5384 5383 5382 5382 5383 5383 5384 5383 5393 5395 5398 5407 5416 5427 5435 5443 5456 5462 5470 5483 5485 5486 5494 5499 5503 5509 5511 5517 5520 5524 5525 5528 5529 5531 5531 5531 5534 5538 5539 5538 5536 5537 5541 5545
5357 5358 5360 5362 5364 5366 5367 5369 5371 5373 5372 5369 5366 5365 5366 5368 5372 5373 5380 5387 5393 5400 5418 5426 5432 5441 5449 5459 5465 5472 5478 5483 5487 5490 5498 5503 5507 5511 5515 5519 5520 5525 5524 5523 5525 5526 5527 5529 5529 5527 5527 5528 5530 5533
5350 5352 5353 5355 5356 5358 5360 5362 5364 5363 5362 5361 5361 5359 5357 5358 5359 5363 5374 5381 5391 5402 5412 5422 5429 5439 5447 5455 5458 5466 5469 5475 5479 5487 5492 5496 5501 5504 5508 5512 5515 5517 5515 5516 5514 5518 5518 5519 5520 5520 5520 5520 5523 5527
5346 5347 5347 5347 5348 5348 5351 5354 5356 5357 5360 5362 5362 5363 5362 5363 5363 5366 5375 5385 5393 5403 5408 5423 5428 5437 5443 5441 5451 5458 5465 5469 5474 5480 5486 5490 5494 5498 5501 5504 5507 5508 5508 5508 5506 5507 5507 5509 5508 5511 5512 5511 5514 5516
5342 5342 5341 5339 5337 5338 5341 5346 5352 5357 5361 5362 5364 5365 5366 5368 5371 5377 5385 5392 5399 5407 5413 5422 5427 5433 5438 5444 5451 5454 5460 5464 5471 5477 5481 5484 5486 5489 5491 5493 5498 5497 5497 5501 5501 5499 5500 5501 5501 5501 5501 5501 5503 5503
5338 5337 5335 5330 5329 5333 5338 5346 5352 5357 5361 5364 5368 5370 5372 5375 5377 5382 5387 5391 5398 5407 5413 5418 5426 5433 5438 5443 5448 5453 5456 5461 5466 5470 5473 5476 5479 5481 5483 5485 5491 5489 5487 5487 5490 5491 5493 5492 5493 5493 5494 5494 5497 5496
5335 5333 5330 5328 5331 5336 5342 5347 5354 5358 5363 5366 5371 5375 5377 5379 5382 5386 5391 5395 5401 5406 5412 5417 5423 5429 5435 5440 5445 5449 5452 5456 5460 5464 5466 5468 5469 5467 5467 5472 5477 5477 5477 5480 5481 5484 5485 5486 5486 5484 5485 5486 5489 5489
5334 5333 5331 5333 5337 5341 5345 5351 5357 5361 5365 5370 5374 5377 5381 5384 5387 5391 5395 5398 5403 5407 5413 5418 5423 5427 5431 5436 5440 5445 5449 5452 5454 5456 5459 5458 5454 5452 5451 5458 5463 5465 5469 5471 5473 5476 5478 5479 5479 5477 5477 5478 5480 5481
5333 5333 5335 5338 5343 5346 5350 5355 5360 5365 5369 5373 5377 5381 5383 5387 5391 5395 5398 5402 5406 5411 5414 5418 5422 5426 5428 5432 5436 5440 5442 5443 5443 5445 5445 5442 5441 5440 5446 5448 5453 5459 5462 5465 5468 5469 5471 5472 5472 5472 5472 5472 5472 5472
5333 5333 5337 5342 5347 5351 5356 5360 5363 5367 5371 5375 5379 5384 5387 5390 5394 5398 5401 5404 5406 5408 5408 5409 5414 5419 5423 5426 5427 5429 5430 5431 5432 5435 5435 5433 5436 5440 5442 5445 5449 5453 5457 5460 5463 5463 5464 5464 5465 5465 5464 5464 5464 5463
5335 5336 5341 5346 5351 5356 5360 5364 5367 5371 5374 5378 5381 5384 5388 5390 5392 5395 5397 5398 5399 5401 5402 5403 5405 5408 5414 5418 5420 5422 5422 5425 5427 5432 5431 5432 5435 5438 5439 5442 5446 5450 5453 5456 5457 5458 5458 5458 5457 5457 5457 5457 5456 5456
5341 5343 5347 5351 5356 5359 5361 5363 5367 5370 5374 5378 5381 5383 5385 5387 5389 5392 5393 5397 5398 5399 5402 5405 5409 5410 5412 5415 5419 5420 5420 5424 5427 5429 5430 5431 5434 5436 5438 5441 5444 5447 5449 5450 5451 5451 5451 5450 5451 5451 5451 5451 5451 5450
5352 5353 5355 5357 5359 5362 5363 5365 5367 5370 5372 5376 5378 5381 5383 5386 5388 5390 5393 5397 5398 5401 5404 5407 5408 5409 5412 5415 5416 5419 5422 5424 5426 5426 5428 5432 5433 5435 5437 5439 5442 5443 5444 5445 5445 5444 5445 5446 5446 5446 5446 5446 5445 5444
5365 5365 5366 5366 5367 5368 5370 5372 5374 5375 5378 5380 5383 5386 5388 5391 5392 5394 5395 5399 5401 5403 5406 5408 5410 5413 5414 5415 5418 5420 5423 5424 5425 5427 5429 5431 5432 5433 5435 5437 5438 5439 5439 5439 5439 5440 5441 5442 5442 5442 5442 5440 5439 5438
5375 5375 5375 5376 5377 5377 5378 5378 5379 5382 5384 5386 5389 5391 5392 5394 5395 5397 5398 5400 5403 5405 5408 5410 5411 5413 5415 5417 5418 5420 5422 5422 5424 5426 5427 5428 5429 5430 5431 5432 5433 5434 5434 5435 5436 5437 5438 5439 5439 5439 5438 5438 5437 5436
5381 5381 5382 5382 5383 5384 5384 5384 5383 5386 5391 5391 5392 5393 5395 5397 5398 5400 5401 5402 5404 5406 5408 5410 5411 5413 5414 5415 5417 5418 5419 5421 5422 5422 5423 5424 5425 5425 5426 5427 5428 5430 5431 5432 5433 5434 5435 5436 5436 5436 5436 5435 5435 5433
5384 5384 5385 5385 5385 5386 5387 5387 5388 5390 5390 5392 5394 5395 5397 5398 5399 5401 5402 5403 5404 5406 5407 5408 5410 5410 5412 5412 5414 5415 5416 5417 5418 5419 5419 5419 5420 5421 5422 5424 5425 5426 5427 5429 5430 5431 5432 5432 5433 5433 5433 5433 5431 5430
5384 5384 5385 5386 5387 5387 5387 5388 5390 5391 5392 5393 5394 5396 5397 5398 5399 5400 5401 5402 5403 5404 5405 5406 5407 5407 5408 5408 5409 5411 5412 5413 5414 5415 5415 5417 5418 5419 5420 5421 5422 5424 5425 5426 5427 5428 5429 5429 5430 5430 5430 5429 5428 5426
5380 5380 5382 5383 5385 5386 5386 5387 5388 5390 5392 5393 5394 5395 5396 5397 5398 5399 5400 5401 5402 5402 5403 5404 5404 5404 5405 5406 5407 5408 5409 5410 5411 5413 5414 5415 5416 5416 5417 5418 5420 5421 5422 5423 5424 5425 5426 5426 5426 5426 5425 5425 5424 5422
5376 5376 5378 5379 5381 5382 5383 5385 5385 5387 5388 5390 5391 5393 5394 5395 5396 5397 5397 5398 5399 5399 5400 5401 5401 5401 5402 5403 5404 5405 5406 5408 5409 5410 5411 5412 5412 5413 5414 5416 5417 5418 5419 5420 5421 5422 5422 5422 5422 5421 5420 5420 5419 5418
5374 5374 5374 5375 5376 5377 5378 5379 5381 5383 5384 5386 5388 5389 5390 5392 5393 5394 5395 5395 5396 5396 5396 5396 5397 5398 5399 5400 5401 5402 5403 5405 5406 5407 5408 5409 5409 5409 5411 5412 5414 5415 5416 5417 5418 5418 5418 5418 5417 5417 5416 5415 5414 5413
5372 5371 5371 5371 5372 5372 5373 5375 5376 5378 5380 5382 5383 5384 5386 5387 5388 5389 5390 5392 5392 5391 5391 5392 5393 5394 5395 5396 5397 5398 5400 5402 5403 5404 5404 5405 5405 5406 5407 5409 5410 5412 5413 5414 5414 5414 5414 5414 5414 5413 5412 5411 5410 5409
5370 5369 5368 5368 5368 5368 5371 5370 5371 5372 5374 5376 5378 5379 5380 5382 5383 5383 5385 5386 5387 5386 5388 5389 5390 5391 5392 5393 5394 5395 5396 5398 5399 5400 5401 5401 5402 5402 5404 5405 5406 5408 5409 5409 5410 5410 5410 5410 5409 5409 5408 5407 5406 5404
5364 5365 5364 5364 5364 5364 5364 5364 5365 5367 5368 5370 5371 5372 5374 5376 5376 5377 5379 5380 5381 5381 5382 5384 5385 5386 5387 5389 5390 5391 5392 5394 5395 5396 5397 5398 5398 5399 5400 5401 5403 5403 5404 5405 5405 5405 5405 5405 5404 5404 5402 5401 5400 5398
5358 5359 5359 5359 5359 5360 5359 5360 5360 5361 5362 5362 5364 5366 5367 5368 5369 5371 5372 5374 5375 5375 5376 5378 5379 5380 5382 5383 5384 5386 5387 5389 5390 5392 5393 5394 5395 5396 5397 5398 5398 5399 5399 5400 5400 5400 5400 5400 5399 5398 5396 5395 5393 5391
5351 5351 5352 5352 5353 5353 5354 5354 5354 5355 5356 5356 5358 5359 5360 5361 5362 5364 5367 5368 5367 5369 5370 5372 5373 5375 5376 5377 5378 5380 5381 5383 5385 5386 5388 5389 5390 5391 5392 5393 5393 5394 5394 5394 5394 5394 5394 5393 5392 5391 5389 5387 5385 5383
5344 5344 5345 5345 5344 5345 5346 5347 5347 5349 5349 5350 5351 5352 5353 5354 5356 5359 5359 5360 5361 5362 5364 5365 5367 5368 5370 5371 5372 5373 5375 5376 5378 5380 5382 5382 5383 5385 5386 5386 5387 5387 5388 5388 5388 5388 5387 5386 5385 5383 5382 5380 5377 5375
5336 5337 5337 5337 5337 5337 5337 5338 5339 5340 5341 5342 5343 5344 5345 5347 5350 5350 5350 5352 5353 5355 5356 5358 5359 5361 5363 5364 5365 5366 5368 5370 5371 5373 5374 5375 5376 5377 5378 5379 5379 5380 5381 5381 5381 5380 5380 5379 5378 5376 5374 5372 5370 5368
5329 5329 5329 5330 5330 5330 5330 5330 5330 5330 5332 5332 5334 5335 5337 5339 5340 5341 5343 5344 5345 5346 5348 5349 5351 5353 5354 5356 5358 5359 5360 5362 5364 5365 5366 5368 5369 5369 5370 5371 5372 5372 5373 5373 5373 5373 5373 5372 5371 5369 5367 5366 5364 5362
5322 5320 5320 5320 5321 5321 5322 5322 5322 5322 5323 5324 5325 5326 5327 5328 5330 5332 5333 5334 5335 5337 5338 5340 5341 5343 5345 5347 5349 5350 5352 5353 5355 5357 5358 5359 5360 5361 5362 5363 5364 5365 5366 5366 5366 5366 5366 5365 5363 5362 5361 5360 5359 5357
5314 5313 5312 5311 5311 5311 5312 5312 5313 5314 5314 5314 5315 5316 5317 5318 5320 5321 5322 5323 5325 5327 5328 5330 5332 5333 5335 5337 5339 5341 5343 5344 5346 5347 5349 5350 5352 5353 5354 5356 5357 5358 5358 5359 5359 5359 5358 5357 5356 5355 5355 5354 5353 5352
5307 5305 5304 5303 5303 5303 5301 5302 5302 5303 5304 5305 5305 5306 5307 5308 5310 5313 5310 5311 5314 5316 5318 5320 5322 5324 5325 5327 5329 5331 5333 5335 5337 5338 5340 5341 5343 5344 5346 5347 5348 5349 5350 5351 5351 5351 5350 5350 5349 5348 5347 5347 5347 5346
5298 5297 5296 5295 5294 5294 5293 5293 5293 5293 5293 5294 5295 5296 5296 5297 5299 5300 5300 5301 5303 5305 5308 5309 5311 5313 5316 5318 5320 5321 5323 5325 5327 5329 5331 5332 5334 5336 5337 5339 5340 5341 5342 5343 5343 5343 5342 5342 5341 5340 5340 5339 5339 5338